sat.trackr.live / text

‹ back to catalog

ONEWEB-0553

NORAD 56055 · 2023-043K

PAYLOAD ACTIVE UNKNOWN

§ Identity

Operator
Country
UK
Launch date
2023-03-26
Launch site
SRILR
Launch vehicle
Mass (kg)
RCS (m²)

Purposes: comms

External: N2YO · Heavens-Above · Gunter

§ Orbital elements

Epoch: 2026-05-25T05:32:24.670176Z

Period
109.37 min
Inclination
87.9106°
Eccentricity
0.0002352
Mean motion
13.16593030 rev/d
Perigee alt
1,196.0 km
Apogee alt
1,199.5 km
Semi-major
7,575.9 km
B*
3.1024e-4
RAAN
233.3322°
Arg perigee
105.8858°
Mean anomaly
254.2532°
Rev number
15,595

§ Raw data

ONEWEB-05531 56055U 23043K   26145.23084109  .00000131  00000+0  31024-3 0  99952 56055  87.9106 233.3322 0002352 105.8858 254.2532 13.16593030155958

JSON: /api/v1/satellites/56055 · /tle

For live sub-satellite position, see the globe view (requires WebGL).

§ Visibility from observer

Set your observer location to see the next 7 days of passes ≥ 10°. The values pass through the URL so the page stays shareable.

No JS? Fill the form by hand. The geolocation button needs JavaScript.